Preview of NWS' New Version of Forecast
This preview is not operational and should not be used for support decisions.

Regional Weather Roundup (RWR)

Issued by National Weather Service (NWS)

                            
000
ASUS43 KTOP 220159
RWRKS 

WEATHER ROUNDUP FOR KANSAS
NATIONAL WEATHER SERVICE GOODLAND KS
800 PM CST THU FEB 21 2019

NOTE:  "FAIR" INDICATES FEW OR NO CLOUDS BELOW 12,000 FEET WITH NO
SIGNIFICANT WEATHER AND/OR OBSTRUCTIONS TO VISIBILITY.

KSZ001>006-013>018-027>032-041>047-220300-
NORTHWEST KANSAS
  
CITY           SKY/WX    TMP DP  RH WIND       PRES   REMARKS
GOODLAND       CLOUDY    33  30  88 NE14      29.88R WCI  23          
HAYS           CLOUDY    35  31  85 E12       29.99R WCI  27          
HILL CITY      CLOUDY    36  30  79 E12       29.99R WCI  28          
RUSSELL        CLOUDY    35  31  85 E12       30.00S WCI  27          
$$

KSZ061>065-074>080-084>089-220300-
SOUTHWEST KANSAS
  
CITY           SKY/WX    TMP DP  RH WIND       PRES   REMARKS
DODGE CITY     CLEAR     38  27  64 SE14      29.91R WCI  30          
GARDEN CITY    CLEAR     38  26  62 SE14      29.87R WCI  30          
GREAT BEND     PTCLDY    36  32  85 E8        30.00R                  
LIBERAL        CLEAR     42  26  53 SE12      29.87R                  
$$

KSZ066>073-081>083-090>101-220300-
SOUTHEAST KANSAS
  
CITY           SKY/WX    TMP DP  RH WIND       PRES   REMARKS
CHANUTE        CLOUDY    39  27  62 NE6       30.12R                  
COFFEYVILLE    CLOUDY    38  30  73 NE6       30.10R                  
HUTCHINSON     CLEAR     39  33  79 E9        30.02R                  
MEDICINE LODGE   N/A     40  31  70 E9        29.98R                  
NEWTON         CLOUDY    38  29  70 E13       30.04R WCI  30          
PARSONS        CLOUDY    36  28  73 CALM      30.11R                  
WICHITA INTL   CLOUDY    43  34  70 E13       30.02R                  
WICHITA JABRA  CLOUDY    40  29  64 E9        30.04R                  
WICHITA MCCONL MOCLDY    41  31  66 NE12      30.02R                  
WINFIELD       MOCLDY    41  33  73 E9        30.05S                  
$$

KSZ007>012-019>026-033>040-048>060-102>105-220300-
NORTHEAST KANSAS
  
CITY           SKY/WX    TMP DP  RH WIND       PRES   REMARKS
CONCORDIA      CLOUDY    35  24  64 E15G24    30.08R WCI  25          
EMPORIA        CLEAR     32  27  81 E10       30.10R WCI  24          
LAWRENCE       CLEAR     34  24  67 NE8       30.17R                  
MANHATTAN      MOCLDY    37  25  61 E10       30.12R WCI  30          
OLATHE IND     CLOUDY    34  24  67 E10       30.15S WCI  26          
OLATHE EXE     CLOUDY    33  23  66 E9        30.15S                  
SALINA         CLOUDY    38  29  70 E14       30.06R WCI  30          
TOPEKA BILLARD CLOUDY    35  22  58 NE8       30.15S                  
TOPEKA FORBES  PTCLDY    34  22  61 E6        30.13F                  
$$